Flag for U.S.A. Weather past 2 weeks in Lexington, Virginia, U.S.A.

Now
65 °F

Clear.


Feels Like: 65 °F
Forecast: 64 / 84 °F
Wind: 9 mph from Southwest

Location: Hot Springs / Ingalls

Current Time: Aug 30, 2015 at 12:16:57 AM

Latest Report: Aug 29, 2015 at 11:50 PM


Visibility: 10 mi

Pressure: 30.27 "Hg

Humidity: 76%

Dew point: 57 °F

Location of LexingtonLocation

Historic Weather in Lexington — Graph

°F

Lexington temperature yesterday

Maximum temperature yesterday: 76 °F (at 2:10 PM)
Minimum temperature yesterday: 61 °F (at 6:50 AM)
Average temperature yesterday: 68 °F

Past Weeks' High & Low Weather Summary

 TemperatureHumidityPressure
High80 °F (Aug 16, 3:10 PM)100% (Aug 18, 4:10 AM)30.35 "Hg (Aug 18, 4:10 AM)
Low52 °F (Aug 26, 6:30 AM)46% (Aug 29, 1:50 PM)30.02 "Hg (Aug 20, 4:30 AM)
Average66 °F79%30.19 "Hg
* Reported Aug 14 10:10 PM — Aug 29 10:50 PM, Lexington, Weather by CustomWeather, © 2015

Note: Actual official high and low records may vary slightly from our data, if they occured in-between our weather recording intervals... More about our weather records

Advertising

Lexington weather history for previous 24 hours

 ConditionsComfort  
Time TempWeatherWind HumidityBarometerVisibility
10:50 PM
Sat, Aug 29
66 °FClear.10 mph75%30.28 "Hg10 mi
10:30 PM66 °FClear.9 mph77%30.28 "Hg10 mi
10:10 PM66 °FClear.10 mph78%30.28 "Hg10 mi
9:50 PM66 °FClear.10 mph77%30.28 "Hg10 mi
9:10 PM66 °FClear.9 mph76%30.27 "Hg10 mi
8:50 PM66 °FSunny.9 mph76%30.26 "Hg10 mi
8:30 PM66 °FSunny.8 mph73%30.26 "Hg10 mi
8:10 PM67 °FSunny.7 mph75%30.26 "Hg10 mi
7:50 PM67 °FSunny.7 mph75%30.25 "Hg10 mi
7:30 PM68 °FSunny.5 mph73%30.25 "Hg10 mi
7:10 PM69 °FSunny.6 mph73%30.26 "Hg10 mi
6:50 PM70 °FSunny.7 mph71%30.26 "Hg10 mi
6:30 PM70 °FSunny.6 mph73%30.26 "Hg10 mi
6:10 PM71 °FSunny.5 mph70%30.26 "Hg10 mi
5:50 PM71 °FSunny.7 mph68%30.26 "Hg10 mi
5:10 PM72 °FSunny.7 mph64%30.27 "Hg10 mi
4:50 PM73 °FSunny.3 mph59%30.27 "Hg10 mi
4:30 PM73 °FSunny.6 mph58%30.27 "Hg10 mi
4:10 PM74 °FSunny.5 mph58%30.28 "Hg10 mi
3:50 PM74 °FSunny.6 mph55%30.28 "Hg10 mi
3:30 PM74 °FScattered clouds.6 mph54%30.30 "Hg10 mi
3:10 PM74 °FScattered clouds.5 mph52%30.30 "Hg10 mi
2:50 PM74 °FScattered clouds.5 mph54%30.30 "Hg10 mi
2:30 PM74 °FScattered clouds.3 mph58%30.30 "Hg10 mi
2:10 PM76 °FSunny.8 mph47%30.31 "Hg10 mi
1:50 PM75 °FScattered clouds.7 mph46%30.31 "Hg10 mi
1:10 PM73 °FSunny.6 mph57%30.33 "Hg10 mi
12:50 PM73 °FSunny.7 mph57%30.33 "Hg10 mi
12:30 PM72 °FSunny.5 mph63%30.33 "Hg10 mi
12:10 PM72 °FSunny.6 mph64%30.34 "Hg10 mi
11:55 AM71 °FSunny.5 mph64%30.34 "Hg10 mi
11:30 AM71 °FSunny.7 mph64%30.35 "Hg10 mi
11:10 AM70 °FSunny.6 mph66%30.35 "Hg10 mi
10:50 AM69 °FSunny.6 mph69%30.35 "Hg10 mi
10:30 AM69 °FSunny.7 mph70%30.34 "Hg10 mi
10:10 AM68 °FSunny.8 mph70%30.33 "Hg10 mi
9:50 AM67 °FSunny.8 mph71%30.33 "Hg10 mi
9:10 AM67 °FSunny.8 mph70%30.33 "Hg10 mi
8:50 AM66 °FSunny.8 mph71%30.33 "Hg10 mi
8:30 AM65 °FSunny.9 mph73%30.33 "Hg10 mi
7:50 AM64 °FSunny.9 mph75%30.33 "Hg10 mi
7:30 AM63 °FPassing clouds.9 mph76%30.32 "Hg10 mi
7:10 AM61 °FClear.10 mph80%30.31 "Hg10 mi
6:50 AM61 °FPassing clouds.10 mph80%30.31 "Hg10 mi
5:50 AM61 °FClear.8 mph78%30.29 "Hg10 mi
5:30 AM62 °FClear.9 mph76%30.29 "Hg10 mi
5:10 AM62 °FClear.8 mph77%30.29 "Hg10 mi
4:50 AM62 °FClear.5 mph80%30.29 "Hg10 mi
3:10 AM62 °FPassing clouds.5 mph82%30.29 "Hg10 mi
2:50 AM63 °FClear.7 mph80%30.29 "Hg10 mi
1:50 AM63 °FPartly cloudy.6 mph80%30.31 "Hg10 mi
1:30 AM64 °FMostly cloudy.6 mph76%30.31 "Hg10 mi
1:10 AM65 °FPassing clouds.7 mph74%30.31 "Hg10 mi
12:50 AM65 °FPassing clouds.8 mph74%30.31 "Hg10 mi
Weather by CustomWeather, © 2015

See weather overviewHow to use our weather pages